Vorticity
nan nan nan nan nan nan nan nan nan nan nan nan nan nan nan nan nan nan nan nan nan nan nan nan nan nan nan nan nan nan nan nan nan nan nan nan nan nan nan nan nan nan nan nan nan nan nan nan nan
nan 3 2 6 8 3 6 10 3 4 4 5 8 6 3 5 13 11 8 9 9 6 6 8 4 6 8 7 7 8 8 7 8 6 6 4 5 5 5 7 9 7 6 7 7 6 5 4 nan
nan 3 6 4 4 6 6 8 5 4 9 8 5 4 10 15 6 6 13 14 9 5 4 9 6 6 8 8 8 9 9 9 8 6 5 5 6 6 5 4 5 6 6 6 7 6 3 4 nan
nan 5 4 5 3 2 8 3 8 5 10 7 4 4 4 7 6 10 13 10 8 5 5 4 7 8 8 7 9 11 12 13 9 7 4 6 7 4 0 5 5 5 7 6 5 4 3 5 nan
nan 5 7 6 5 6 7 -1 1 2 1 1 3 4 4 9 5 11 11 8 7 5 8 4 5 7 8 9 11 13 14 10 7 9 8 5 6 9 7 2 3 3 7 7 6 5 5 5 nan
nan 5 7 4 7 9 3 7 3 5 0 0 3 6 11 9 12 10 9 7 5 6 7 6 5 5 8 10 11 11 13 10 5 5 8 7 6 8 14 10 6 7 5 6 6 6 5 5 nan
nan 6 1 4 6 7 9 12 9 8 6 10 9 9 12 10 11 12 9 6 5 6 7 7 6 2 4 9 11 10 10 9 8 7 6 6 6 8 11 10 8 10 7 5 5 6 6 5 nan
nan 6 10 6 5 3 13 12 12 11 9 8 11 11 7 13 13 10 8 6 5 5 7 7 8 6 5 5 7 8 7 9 8 7 7 5 3 4 5 7 8 7 5 4 5 6 6 6 nan
nan 7 7 5 6 9 3 3 8 7 12 8 0 -1 14 13 9 6 5 4 4 6 6 7 7 7 6 7 6 6 7 5 4 4 5 2 5 6 2 4 7 7 6 5 5 7 6 3 nan
nan 2 0 4 9 6 -0 3 2 4 8 8 6 2 5 7 6 6 3 4 5 5 6 6 7 8 6 8 6 1 1 2 5 8 3 3 7 5 4 5 4 4 5 5 6 7 5 3 nan
nan 0 6 8 3 5 5 7 4 6 5 4 4 7 7 8 6 6 6 6 6 3 6 7 6 8 4 4 4 5 4 5 5 6 8 9 5 7 7 3 5 5 3 4 6 4 3 5 nan
nan 8 4 5 6 7 5 5 6 6 5 3 3 5 8 12 4 7 9 9 8 6 3 5 6 5 5 3 8 6 5 7 8 4 8 8 7 7 7 9 7 4 6 8 7 6 8 7 nan
nan 7 7 10 8 4 8 6 9 7 11 7 5 4 7 4 4 7 10 10 7 7 5 5 9 4 7 3 6 7 8 7 7 8 7 6 7 7 7 7 6 5 9 9 6 9 9 7 nan
nan 9 9 9 7 8 7 5 7 10 8 10 8 9 6 6 8 6 11 10 7 6 7 6 5 6 5 6 6 5 8 7 6 9 9 7 7 7 9 7 7 8 7 9 10 8 6 7 nan
nan 7 10 12 15 12 10 11 9 16 9 7 11 12 10 9 9 9 10 9 8 7 8 6 4 6 5 6 5 7 7 7 9 11 9 6 8 8 7 7 7 8 9 7 4 7 8 8 nan
nan 9 9 9 17 15 10 7 9 18 26 15 8 9 13 12 11 11 9 10 9 8 8 5 5 7 7 6 3 3 7 10 9 9 11 7 6 8 5 6 8 7 7 7 6 5 7 7 nan
nan 5 9 9 10 11 3 0 7 1 4 15 11 11 12 13 14 12 9 11 9 8 8 7 7 5 6 8 6 6 4 6 8 9 11 10 7 6 5 7 9 6 6 7 7 7 7 6 nan
nan 11 7 9 3 1 4 11 3 -3 1 4 5 9 10 13 15 15 11 10 9 8 7 6 7 8 4 7 8 8 6 5 9 9 11 9 7 7 5 8 8 5 6 7 9 8 8 7 nan
nan 7 5 7 4 9 10 7 6 7 9 6 4 5 5 9 10 14 15 11 10 10 6 6 6 4 3 6 8 8 9 8 6 10 12 7 7 6 5 7 7 6 8 9 7 7 7 6 nan
nan 12 10 11 15 10 9 10 10 6 4 3 6 6 6 7 8 10 14 12 12 9 8 7 4 6 2 3 8 7 8 9 6 9 12 10 7 6 6 6 7 7 7 9 8 4 2 8 nan
nan 19 14 5 10 14 15 14 14 14 12 10 10 8 7 7 9 10 13 12 8 9 10 9 7 6 7 2 3 6 8 8 10 7 9 12 9 7 6 5 7 8 6 8 7 7 3 5 nan
nan 8 9 10 9 11 8 17 13 15 20 17 12 10 8 9 7 10 12 11 8 7 9 10 9 7 8 5 5 7 4 6 8 9 9 11 10 7 7 6 7 6 7 8 6 6 4 7 nan
nan 5 8 12 12 11 5 8 8 11 10 9 13 14 10 10 9 11 10 12 9 8 8 12 10 8 8 6 4 7 6 6 9 11 11 9 10 9 7 6 7 5 7 9 8 6 5 4 nan
nan 17 29 23 16 13 15 7 8 11 8 9 14 17 21 13 9 13 13 14 10 8 8 10 10 10 9 7 7 6 7 5 7 8 9 9 9 12 12 6 6 8 8 8 8 8 7 4 nan
nan 23 31 24 13 6 15 16 14 15 18 16 13 11 12 22 27 15 16 13 10 9 9 9 11 10 10 8 7 7 7 8 8 6 8 8 7 11 12 8 6 7 9 7 8 8 8 7 nan
nan 12 9 8 -1 6 18 14 7 4 17 18 14 21 16 10 15 23 24 13 12 10 8 8 10 8 10 8 7 8 5 5 10 8 5 8 9 12 10 9 8 8 7 6 7 7 10 10 nan
nan 7 17 22 10 10 7 4 -4 -0 7 8 12 14 12 13 11 15 15 22 21 12 7 9 9 8 8 7 7 8 8 7 8 8 5 8 9 9 11 10 8 8 8 7 5 7 9 9 nan
nan 11 16 13 15 11 11 11 -12 -1 7 10 12 11 11 11 13 16 20 16 18 17 10 12 10 9 9 7 7 9 9 8 7 8 9 7 9 9 10 9 8 8 8 8 6 7 9 7 nan
nan 12 13 11 9 5 7 3 -1 6 5 6 12 12 11 13 14 14 21 25 16 17 18 10 11 10 9 8 8 8 9 9 8 9 9 9 10 10 9 9 9 8 8 8 7 7 10 9 nan
nan nan nan nan nan nan nan nan nan nan nan nan nan nan nan nan nan nan nan nan nan nan nan nan nan nan nan nan nan nan nan nan nan nan nan nan nan nan nan nan nan nan nan nan nan nan nan nan nan
CAPE
0 0 0 0 0 0 0 0 0 0 67 132 231 247 250 219 145 579 486 611 231 254 455 389 649 762 720 781 562 745 866 1028 970 876 807 800 1145 977 1268 1343 1363 1488 1777 1644 1160 697 473 351 533
0 0 0 0 0 0 0 0 0 0 6 152 299 276 247 279 432 609 761 574 292 320 410 301 512 625 725 836 833 1060 1010 1020 879 718 540 626 791 773 473 687 853 1392 1442 1499 624 379 425 451 458
0 0 0 0 0 0 0 0 0 0 2 47 190 261 261 334 915 748 763 616 295 278 215 402 493 582 749 817 800 911 873 664 634 562 558 518 447 468 163 376 464 993 1264 720 379 443 528 497 311
0 0 0 0 0 0 0 0 0 0 50 185 196 90 256 889 844 877 727 536 386 241 160 177 471 649 776 727 758 820 497 361 463 320 381 115 449 440 240 222 383 362 776 456 536 492 398 270 201
0 0 0 0 0 0 0 0 0 0 0 1 0 0 11 1009 913 885 805 490 430 233 200 298 427 616 728 734 845 676 447 418 332 347 417 479 703 651 347 146 209 306 650 642 654 424 285 251 219
0 0 0 0 0 0 0 0 0 0 0 0 0 0 0 1152 980 959 750 495 288 281 490 475 525 650 642 736 687 436 398 311 317 360 468 836 896 647 452 241 217 362 490 403 333 188 280 246 190
0 0 0 0 0 0 0 0 0 0 0 0 0 0 99 910 1097 961 747 507 319 501 676 566 709 624 437 342 319 235 271 234 308 341 429 441 470 489 423 317 380 476 314 274 259 180 245 222 126
0 0 0 0 0 0 0 0 0 0 0 0 0 0 27 1180 1052 928 785 583 521 575 615 705 827 642 943 860 183 120 115 129 166 218 244 209 340 350 309 286 344 336 200 328 258 156 225 154 37
0 0 0 0 0 0 0 0 0 0 0 0 0 2 197 960 965 909 820 627 372 496 624 805 749 824 991 960 783 285 246 150 110 186 130 119 89 81 128 24 160 171 139 163 135 73 102 29 35
0 0 0 0 0 0 0 0 0 0 0 0 0 0 112 556 961 1024 831 618 488 396 668 511 906 1077 873 623 941 1071 632 316 339 248 217 101 7 3 0 42 73 77 84 95 75 17 27 34 46
0 0 0 0 0 0 0 0 0 0 0 0 0 0 1 219 910 1121 884 600 388 426 522 355 707 992 874 678 1344 1742 1313 166 106 73 104 30 0 8 0 24 31 86 60 55 27 33 236 341 279
0 0 0 0 0 0 0 0 0 0 0 0 0 0 0 239 463 471 765 655 390 404 532 409 598 689 741 1037 1105 705 1121 639 185 251 0 37 0 1 0 8 34 51 74 232 268 32 272 439 306
0 0 0 0 0 0 0 0 0 0 0 0 0 0 0 0 51 157 327 650 476 348 268 400 732 739 821 929 748 937 1042 1197 319 367 39 9 1 26 0 43 71 188 378 422 401 474 556 287 103
0 0 0 0 0 0 0 0 0 0 0 0 0 0 0 0 0 7 360 739 474 271 252 431 460 698 899 1058 676 793 299 1200 930 735 73 0 2 56 24 58 129 208 330 319 487 557 262 16 32
0 0 0 0 0 0 0 0 0 0 0 0 0 0 0 0 0 0 329 684 571 324 339 410 224 248 809 950 580 329 434 582 1237 440 27 0 4 24 42 69 187 266 245 303 425 132 3 19 8
0 0 0 0 0 0 0 0 0 0 0 0 0 0 0 0 0 0 208 559 630 302 386 320 159 226 424 593 690 187 88 242 974 343 25 0 1 16 59 34 199 209 268 236 275 50 3 7 8
0 0 0 0 0 0 0 0 0 0 0 0 0 0 0 0 0 0 167 605 610 373 367 302 222 210 362 339 218 249 31 91 205 105 51 0 0 10 3 51 133 232 152 168 168 120 41 7 5
0 0 0 0 0 0 0 0 0 0 0 0 0 0 0 0 0 0 41 524 567 448 453 350 225 245 277 201 125 10 97 462 161 242 43 0 0 0 0 8 186 126 18 127 302 88 17 8 6
0 0 0 0 0 0 0 0 0 0 0 0 0 0 0 0 0 0 0 432 590 562 384 361 284 292 185 51 24 31 10 197 322 89 22 6 0 0 0 0 184 72 60 294 319 6 7 7 8
0 0 0 0 0 0 0 0 0 0 0 0 0 0 0 0 0 0 188 689 753 740 661 465 279 209 136 82 63 222 109 1 131 84 30 28 1 0 0 0 22 15 84 508 331 10 5 8 5
0 0 0 3 4 1 0 0 0 0 0 0 0 0 0 0 0 0 262 1099 849 933 917 761 395 242 139 127 217 216 82 5 0 26 71 14 16 0 0 0 0 23 97 402 214 58 4 2 3
0 0 1 4 12 1 0 0 0 0 0 0 0 0 0 0 0 0 62 1150 1200 1136 1145 998 698 339 254 251 222 126 124 0 0 0 30 9 40 26 0 0 0 12 86 488 439 227 204 41 5
2 5 1 0 0 9 0 20 0 0 0 0 0 0 0 0 0 0 0 922 1447 1197 1245 1018 735 484 360 351 226 277 110 0 0 0 0 26 78 52 17 5 5 2 0 194 360 372 392 223 83
7 3 0 0 1 17 0 16 1 0 0 0 0 0 0 0 0 0 0 563 1597 1464 1438 1132 974 870 451 302 309 350 260 22 0 0 0 5 25 149 127 43 139 44 11 29 265 395 376 358 303
10 12 25 64 112 42 23 32 0 6 0 0 0 0 0 0 0 0 0 247 1378 1792 1470 1234 1006 957 817 454 318 227 216 171 95 0 0 0 6 38 284 228 463 371 95 17 223 289 327 404 424
18 16 39 21 35 11 0 34 81 37 108 139 52 104 6 69 44 0 0 80 1002 1744 1752 1287 967 1034 1071 552 369 112 147 81 80 0 0 0 9 54 197 461 275 197 196 367 413 439 452 395 457
6 11 5 56 12 8 0 22 0 0 1 3 2 1 10 33 35 131 110 486 974 1681 1972 1455 1306 1286 1300 943 491 98 54 80 67 50 11 13 18 19 315 481 298 418 335 388 442 389 428 354 409
14 8 18 26 30 25 95 8 31 25 24 7 13 12 13 10 10 19 149 216 848 1453 1892 1983 1766 1707 1740 1108 653 232 80 92 100 105 49 40 63 31 182 326 351 312 485 433 478 514 530 446 314
30 31 21 35 41 48 29 25 41 23 63 35 20 16 11 4 12 8 12 381 442 1259 1718 2689 2320 2162 2095 1137 761 338 166 65 111 87 112 65 137 122 148 286 307 481 563 527 726 674 567 411 375
17 31 25 70 2 14 22 27 20 33 70 34 18 28 17 10 11 5 7 1 651 689 1781 2183 2420 2291 1996 1414 896 590 224 49 93 121 114 228 188 148 185 248 519 572 612 624 766 800 546 505 387